User: anonymous   Login
Location: Unspecified
(0.0000°N, 0.0000°E)
Time: 11:46:19
(UTC+00:00)
Language:

CYGFM05 - Orbit

View from above orbital plane
View from above orbital plane
View from above satellite
View from above satellite

Ground track
Ground track

The orbit data is extracted from the following two-line orbital elements,

1 41884U 16078A   19141.86282374 +.00000260 +00000-0 +15590-4 0  9995
2 41884 034.9573 338.1480 0015295 143.1382 217.0383 15.14384511134554
Epoch (UTC): 21 May 2019 20:42:27
Eccentricity: 0.0015295
inclination: 34.9573°
perigee height: 512 km
apogee height: 533 km
right ascension of ascending node: 338.1480°
argument of perigee: 143.1382°
revolutions per day: 15.14384511
mean anomaly at epoch: 217.0383°
orbit number at epoch: 13455

The dashed part of the orbit path shows where the satellite is in the earth's shadow,  

DLR